Time,TemperatureF,DewpointF,PressureIn,WindDirection,WindDirectionDegrees,WindSpeedMPH,WindSpeedGustMPH,Humidity,HourlyPrecipIn,Conditions,Clouds,dailyrainin,SoftwareType,DateUTC
2013-08-25 00:00:00,63.7,54.5,30.34,North,32767,-999.0,0.0,72,0.00,,,0.00,Wunderground v.1.15,2013-08-25 04:00:00,
2013-08-25 00:04:00,63.5,54.7,30.34,North,32767,-999.0,0.0,73,0.00,,,0.00,Wunderground v.1.15,2013-08-25 04:04:00,
2013-08-25 00:09:00,63.3,54.5,30.33,North,32767,-999.0,0.0,73,0.00,,,0.00,Wunderground v.1.15,2013-08-25 04:09:00,
2013-08-25 00:14:00,63.1,54.7,30.33,North,32767,-999.0,0.0,74,0.00,,,0.00,Wunderground v.1.15,2013-08-25 04:14:00,
2013-08-25 00:19:00,62.9,54.5,30.33,North,32767,-999.0,0.0,74,0.00,,,0.00,Wunderground v.1.15,2013-08-25 04:19:00,
2013-08-25 00:24:00,62.6,54.2,30.33,North,32767,-999.0,0.0,74,0.00,,,0.00,Wunderground v.1.15,2013-08-25 04:24:00,
2013-08-25 00:30:00,62.4,54.4,30.33,North,32767,-999.0,0.0,75,0.00,,,0.00,Wunderground v.1.15,2013-08-25 04:30:00,
2013-08-25 00:39:00,62.2,54.2,30.33,North,32767,-999.0,0.0,75,0.00,,,0.00,Wunderground v.1.15,2013-08-25 04:39:00,
2013-08-25 00:44:00,62.1,54.4,30.33,North,32767,-999.0,0.0,76,0.00,,,0.00,Wunderground v.1.15,2013-08-25 04:44:00,
2013-08-25 00:54:00,61.9,54.2,30.33,North,32767,-999.0,0.0,76,0.00,,,0.00,Wunderground v.1.15,2013-08-25 04:54:00,
2013-08-25 01:00:00,61.7,54.4,30.33,North,32767,-999.0,0.0,77,0.00,,,0.00,Wunderground v.1.15,2013-08-25 05:00:00,
2013-08-25 01:05:00,61.7,54.4,30.33,North,32767,-999.0,0.0,77,0.00,,,0.00,Wunderground v.1.15,2013-08-25 05:05:00,
2013-08-25 01:14:00,61.4,54.5,30.32,North,32767,-999.0,0.0,78,0.00,,,0.00,Wunderground v.1.15,2013-08-25 05:14:00,
2013-08-25 01:20:00,61.3,54.7,30.32,North,32767,-999.0,0.0,79,0.00,,,0.00,Wunderground v.1.15,2013-08-25 05:20:00,
2013-08-25 01:29:00,61.0,54.4,30.32,North,32767,-999.0,0.0,79,0.00,,,0.00,Wunderground v.1.15,2013-08-25 05:29:00,
2013-08-25 01:39:00,60.9,54.3,30.32,North,32767,-999.0,0.0,79,0.00,,,0.00,Wunderground v.1.15,2013-08-25 05:39:00,
2013-08-25 01:49:00,60.8,54.2,30.32,North,32767,-999.0,0.0,79,0.00,,,0.00,Wunderground v.1.15,2013-08-25 05:49:00,
2013-08-25 02:00:00,60.5,54.3,30.32,North,32767,-999.0,0.0,80,0.00,,,0.00,Wunderground v.1.15,2013-08-25 06:00:00,
2013-08-25 02:09:00,60.2,54.3,30.32,North,32767,-999.0,0.0,81,0.00,,,0.00,Wunderground v.1.15,2013-08-25 06:09:00,
2013-08-25 02:15:00,60.0,54.2,30.32,North,32767,-999.0,0.0,81,0.00,,,0.00,Wunderground v.1.15,2013-08-25 06:15:00,
2013-08-25 02:24:00,59.8,54.3,30.32,North,32767,-999.0,0.0,82,0.00,,,0.00,Wunderground v.1.15,2013-08-25 06:24:00,
2013-08-25 02:34:00,59.9,54.4,30.32,North,32767,-999.0,0.0,82,0.00,,,0.00,Wunderground v.1.15,2013-08-25 06:34:00,
2013-08-25 02:39:00,59.8,54.3,30.32,North,32767,-999.0,0.0,82,0.00,,,0.00,Wunderground v.1.15,2013-08-25 06:39:00,
2013-08-25 02:44:00,59.8,54.3,30.32,North,32767,-999.0,0.0,82,0.00,,,0.00,Wunderground v.1.15,2013-08-25 06:44:00,
2013-08-25 02:54:00,60.1,54.6,30.32,North,32767,-999.0,0.0,82,0.00,,,0.00,Wunderground v.1.15,2013-08-25 06:54:00,
2013-08-25 02:59:00,60.2,54.3,30.32,North,32767,-999.0,0.0,81,0.00,,,0.00,Wunderground v.1.15,2013-08-25 06:59:00,
2013-08-25 03:09:00,60.4,54.5,30.32,North,32767,-999.0,0.0,81,0.00,,,0.00,Wunderground v.1.15,2013-08-25 07:09:00,
2013-08-25 03:15:00,60.5,54.3,30.32,North,32767,-999.0,0.0,80,0.00,,,0.00,Wunderground v.1.15,2013-08-25 07:15:00,
2013-08-25 03:24:00,60.6,54.4,30.32,North,32767,-999.0,0.0,80,0.00,,,0.00,Wunderground v.1.15,2013-08-25 07:24:00,
2013-08-25 03:34:00,60.5,54.3,30.32,North,32767,-999.0,0.0,80,0.00,,,0.00,Wunderground v.1.15,2013-08-25 07:34:00,
2013-08-25 03:44:00,60.3,54.1,30.33,North,32767,-999.0,0.0,80,0.00,,,0.00,Wunderground v.1.15,2013-08-25 07:44:00,
2013-08-25 03:55:00,60.2,54.0,30.33,North,32767,-999.0,0.0,80,0.00,,,0.00,Wunderground v.1.15,2013-08-25 07:55:00,
2013-08-25 04:00:00,60.1,54.2,30.33,North,32767,-999.0,0.0,81,0.00,,,0.00,Wunderground v.1.15,2013-08-25 08:00:00,
2013-08-25 04:09:00,60.0,54.2,30.33,North,32767,-999.0,0.0,81,0.00,,,0.00,Wunderground v.1.15,2013-08-25 08:09:00,
2013-08-25 04:15:00,60.0,54.2,30.33,North,32767,-999.0,0.0,81,0.00,,,0.00,Wunderground v.1.15,2013-08-25 08:15:00,
2013-08-25 04:24:00,59.9,54.1,30.33,North,32767,-999.0,0.0,81,0.00,,,0.00,Wunderground v.1.15,2013-08-25 08:24:00,
2013-08-25 04:34:00,60.0,54.5,30.33,North,32767,-999.0,0.0,82,0.00,,,0.00,Wunderground v.1.15,2013-08-25 08:34:00,
2013-08-25 04:45:00,60.0,54.5,30.33,North,32767,-999.0,0.0,82,0.00,,,0.00,Wunderground v.1.15,2013-08-25 08:45:00,
2013-08-25 04:54:00,59.9,54.4,30.34,North,32767,-999.0,0.0,82,0.00,,,0.00,Wunderground v.1.15,2013-08-25 08:54:00,
2013-08-25 05:00:00,59.8,54.6,30.34,North,32767,-999.0,0.0,83,0.00,,,0.00,Wunderground v.1.15,2013-08-25 09:00:00,
2013-08-25 05:09:00,59.9,54.7,30.34,North,32767,-999.0,0.0,83,0.00,,,0.00,Wunderground v.1.15,2013-08-25 09:09:00,
2013-08-25 05:19:00,60.0,54.5,30.35,North,32767,-999.0,0.0,82,0.00,,,0.00,Wunderground v.1.15,2013-08-25 09:19:00,
2013-08-25 05:30:00,60.0,54.8,30.35,North,32767,-999.0,0.0,83,0.00,,,0.00,Wunderground v.1.15,2013-08-25 09:30:00,
2013-08-25 05:39:00,60.1,54.9,30.35,North,32767,-999.0,0.0,83,0.00,,,0.00,Wunderground v.1.15,2013-08-25 09:39:00,
2013-08-25 05:49:00,60.0,54.8,30.35,North,32767,-999.0,0.0,83,0.00,,,0.00,Wunderground v.1.15,2013-08-25 09:49:00,
2013-08-25 05:54:00,60.0,54.8,30.35,North,32767,-999.0,0.0,83,0.00,,,0.00,Wunderground v.1.15,2013-08-25 09:54:00,
2013-08-25 06:00:00,60.0,54.8,30.35,North,32767,-999.0,0.0,83,0.00,,,0.00,Wunderground v.1.15,2013-08-25 10:00:00,
2013-08-25 06:10:00,59.9,55.1,30.35,North,32767,-999.0,0.0,84,0.00,,,0.00,Wunderground v.1.15,2013-08-25 10:10:00,
2013-08-25 06:19:00,59.9,54.7,30.36,North,32767,-999.0,0.0,83,0.00,,,0.00,Wunderground v.1.15,2013-08-25 10:19:00,
2013-08-25 06:24:00,59.9,55.1,30.36,North,32767,-999.0,0.0,84,0.00,,,0.00,Wunderground v.1.15,2013-08-25 10:24:00,
2013-08-25 06:29:00,59.9,55.1,30.36,North,32767,-999.0,0.0,84,0.00,,,0.00,Wunderground v.1.15,2013-08-25 10:29:00,
2013-08-25 06:34:00,59.9,55.1,30.36,North,32767,-999.0,0.0,84,0.00,,,0.00,Wunderground v.1.15,2013-08-25 10:34:00,
2013-08-25 06:39:00,59.9,55.1,30.36,North,32767,-999.0,0.0,84,0.00,,,0.00,Wunderground v.1.15,2013-08-25 10:39:00,
2013-08-25 06:49:00,59.8,55.0,30.37,North,32767,-999.0,0.0,84,0.00,,,0.00,Wunderground v.1.15,2013-08-25 10:49:00,
2013-08-25 06:55:00,59.7,54.9,30.37,North,32767,-999.0,0.0,84,0.00,,,0.00,Wunderground v.1.15,2013-08-25 10:55:00,
2013-08-25 07:00:00,59.7,54.9,30.37,North,32767,-999.0,0.0,84,0.00,,,0.00,Wunderground v.1.15,2013-08-25 11:00:00,
2013-08-25 07:09:00,59.8,55.0,30.38,North,32767,-999.0,0.0,84,0.00,,,0.00,Wunderground v.1.15,2013-08-25 11:09:00,
2013-08-25 07:14:00,59.9,55.1,30.38,North,32767,-999.0,0.0,84,0.00,,,0.00,Wunderground v.1.15,2013-08-25 11:14:00,
2013-08-25 07:20:00,60.0,55.2,30.38,North,32767,-999.0,0.0,84,0.00,,,0.00,Wunderground v.1.15,2013-08-25 11:20:00,
2013-08-25 07:29:00,60.1,55.2,30.39,North,32767,-999.0,0.0,84,0.00,,,0.00,Wunderground v.1.15,2013-08-25 11:29:00,
2013-08-25 07:34:00,60.2,55.3,30.38,North,32767,-999.0,0.0,84,0.00,,,0.00,Wunderground v.1.15,2013-08-25 11:34:00,
2013-08-25 07:45:00,60.3,55.4,30.39,North,32767,-999.0,0.0,84,0.00,,,0.00,Wunderground v.1.15,2013-08-25 11:45:00,
2013-08-25 07:54:00,60.4,55.9,30.38,North,32767,-999.0,0.0,85,0.00,,,0.00,Wunderground v.1.15,2013-08-25 11:54:00,
2013-08-25 07:59:00,60.4,56.2,30.39,SE,136,0.0,0.0,86,0.00,,,0.00,Wunderground v.1.15,2013-08-25 11:59:00,
2013-08-25 08:05:00,60.4,56.2,30.39,SE,136,0.0,0.0,86,0.00,,,0.00,Wunderground v.1.15,2013-08-25 12:05:00,
2013-08-25 08:14:00,61.0,56.8,30.39,SE,136,0.0,0.0,86,0.00,,,0.00,Wunderground v.1.15,2013-08-25 12:14:00,
2013-08-25 08:24:00,61.5,56.9,30.38,SE,136,0.0,0.0,85,0.00,,,0.00,Wunderground v.1.15,2013-08-25 12:24:00,
2013-08-25 08:34:00,62.1,57.5,30.38,SE,138,0.0,0.0,85,0.00,,,0.00,Wunderground v.1.15,2013-08-25 12:34:00,
2013-08-25 08:39:00,62.4,57.8,30.39,SE,138,0.0,0.0,85,0.00,,,0.00,Wunderground v.1.15,2013-08-25 12:39:00,
2013-08-25 08:50:00,63.0,57.8,30.39,West,276,0.0,0.0,83,0.00,,,0.00,Wunderground v.1.15,2013-08-25 12:50:00,
2013-08-25 09:00:00,63.4,58.5,30.39,ENE,65,0.0,0.0,84,0.00,,,0.00,Wunderground v.1.15,2013-08-25 13:00:00,
2013-08-25 09:09:00,63.6,58.3,30.39,NNE,17,0.0,0.0,83,0.00,,,0.00,Wunderground v.1.15,2013-08-25 13:09:00,
2013-08-25 09:19:00,64.6,58.6,30.39,ESE,105,0.0,0.0,81,0.00,,,0.00,Wunderground v.1.15,2013-08-25 13:19:00,
2013-08-25 09:29:00,65.9,59.2,30.39,NNE,18,0.0,0.0,79,0.00,,,0.00,Wunderground v.1.15,2013-08-25 13:29:00,
2013-08-25 09:35:00,66.4,59.3,30.39,SSW,209,0.0,0.0,78,0.00,,,0.00,Wunderground v.1.15,2013-08-25 13:35:00,
2013-08-25 09:45:00,67.2,60.1,30.38,WNW,296,0.0,0.0,78,0.00,,,0.00,Wunderground v.1.15,2013-08-25 13:45:00,
2013-08-25 09:54:00,68.2,61.4,30.38,WNW,296,0.0,0.0,79,0.00,,,0.00,Wunderground v.1.15,2013-08-25 13:54:00,
2013-08-25 10:00:00,68.7,61.9,30.38,WNW,296,0.0,0.0,79,0.00,,,0.00,Wunderground v.1.15,2013-08-25 14:00:00,
2013-08-25 10:05:00,68.9,61.4,30.38,NNE,25,0.0,0.0,77,0.00,,,0.00,Wunderground v.1.15,2013-08-25 14:05:00,
2013-08-25 10:14:00,69.1,60.8,30.39,NNE,24,0.0,0.0,75,0.00,,,0.00,Wunderground v.1.15,2013-08-25 14:14:00,
2013-08-25 10:24:00,69.2,61.7,30.39,NW,325,0.0,0.0,77,0.00,,,0.00,Wunderground v.1.15,2013-08-25 14:24:00,
2013-08-25 10:30:00,69.5,61.6,30.39,West,267,0.0,0.0,76,0.00,,,0.00,Wunderground v.1.15,2013-08-25 14:30:00,
2013-08-25 10:39:00,70.3,61.6,30.38,West,267,0.0,0.0,74,0.00,,,0.00,Wunderground v.1.15,2013-08-25 14:39:00,
2013-08-25 10:49:00,70.6,61.9,30.38,NW,323,0.0,0.0,74,0.00,,,0.00,Wunderground v.1.15,2013-08-25 14:49:00,
2013-08-25 11:00:00,71.3,63.0,30.38,NW,323,0.0,0.0,75,0.00,,,0.00,Wunderground v.1.15,2013-08-25 15:00:00,
2013-08-25 11:09:00,71.9,62.0,30.37,NW,323,0.0,0.0,71,0.00,,,0.00,Wunderground v.1.15,2013-08-25 15:09:00,
2013-08-25 11:15:00,72.1,62.2,30.37,NW,323,0.0,0.0,71,0.00,,,0.00,Wunderground v.1.15,2013-08-25 15:15:00,
2013-08-25 11:24:00,72.9,61.7,30.37,NW,323,0.0,0.0,68,0.00,,,0.00,Wunderground v.1.15,2013-08-25 15:24:00,
2013-08-25 11:29:00,73.3,62.9,30.37,NW,323,0.0,0.0,70,0.00,,,0.00,Wunderground v.1.15,2013-08-25 15:29:00,
2013-08-25 11:40:00,73.8,61.3,30.37,SW,223,0.0,0.0,65,0.00,,,0.00,Wunderground v.1.15,2013-08-25 15:40:00,
2013-08-25 11:45:00,74.0,61.9,30.36,SSW,207,0.0,0.0,66,0.00,,,0.00,Wunderground v.1.15,2013-08-25 15:45:00,
2013-08-25 11:54:00,74.1,62.4,30.36,ESE,113,0.0,0.0,67,0.00,,,0.00,Wunderground v.1.15,2013-08-25 15:54:00,
2013-08-25 12:00:00,74.0,61.9,30.36,NE,34,0.0,0.0,66,0.00,,,0.00,Wunderground v.1.15,2013-08-25 16:00:00,
2013-08-25 12:10:00,74.5,60.2,30.35,ENE,76,0.0,0.0,61,0.00,,,0.00,Wunderground v.1.15,2013-08-25 16:10:00,
2013-08-25 12:19:00,74.8,61.4,30.35,ENE,78,0.0,0.0,63,0.00,,,0.00,Wunderground v.1.15,2013-08-25 16:19:00,
2013-08-25 12:29:00,75.2,59.9,30.35,ENE,72,0.0,0.0,59,0.00,,,0.00,Wunderground v.1.15,2013-08-25 16:29:00,
2013-08-25 12:34:00,74.9,58.6,30.35,East,83,0.0,0.0,57,0.00,,,0.00,Wunderground v.1.15,2013-08-25 16:34:00,
2013-08-25 12:39:00,74.4,57.7,30.34,East,91,0.0,0.0,56,0.00,,,0.00,Wunderground v.1.15,2013-08-25 16:39:00,
2013-08-25 12:45:00,74.3,56.1,30.34,East,93,0.0,0.0,53,0.00,,,0.00,Wunderground v.1.15,2013-08-25 16:45:00,
2013-08-25 12:50:00,74.6,59.3,30.34,East,93,0.0,0.0,59,0.00,,,0.00,Wunderground v.1.15,2013-08-25 16:50:00,
2013-08-25 13:00:00,74.7,58.5,30.34,East,93,0.0,0.0,57,0.00,,,0.00,Wunderground v.1.15,2013-08-25 17:00:00,
2013-08-25 13:10:00,75.1,58.3,30.34,East,101,0.0,0.0,56,0.00,,,0.00,Wunderground v.1.15,2013-08-25 17:10:00,
2013-08-25 13:19:00,75.2,59.4,30.34,SW,230,0.0,0.0,58,0.00,,,0.00,Wunderground v.1.15,2013-08-25 17:19:00,
2013-08-25 13:29:00,75.7,58.4,30.34,WSW,244,0.0,0.0,55,0.00,,,0.00,Wunderground v.1.15,2013-08-25 17:29:00,
2013-08-25 13:39:00,76.0,58.2,30.34,NNE,26,0.0,0.0,54,0.00,,,0.00,Wunderground v.1.15,2013-08-25 17:39:00,
2013-08-25 13:44:00,76.0,58.2,30.34,NE,42,0.0,0.0,54,0.00,,,0.00,Wunderground v.1.15,2013-08-25 17:44:00,
2013-08-25 13:54:00,76.4,62.0,30.33,ESE,120,0.0,0.0,61,0.00,,,0.00,Wunderground v.1.15,2013-08-25 17:54:00,
2013-08-25 14:00:00,76.0,58.7,30.33,ENE,74,0.0,0.0,55,0.00,,,0.00,Wunderground v.1.15,2013-08-25 18:00:00,
2013-08-25 14:09:00,75.9,61.0,30.33,East,101,0.0,0.0,60,0.00,,,0.00,Wunderground v.1.15,2013-08-25 18:09:00,
2013-08-25 14:19:00,75.9,61.0,30.33,ENE,60,0.0,0.0,60,0.00,,,0.00,Wunderground v.1.15,2013-08-25 18:19:00,
2013-08-25 14:29:00,76.0,58.2,30.32,South,173,0.0,0.0,54,0.00,,,0.00,Wunderground v.1.15,2013-08-25 18:29:00,
2013-08-25 14:40:00,76.4,57.5,30.32,ESE,113,0.0,0.0,52,0.00,,,0.00,Wunderground v.1.15,2013-08-25 18:40:00,
2013-08-25 14:49:00,76.4,58.0,30.32,South,171,0.0,0.0,53,0.00,,,0.00,Wunderground v.1.15,2013-08-25 18:49:00,
2013-08-25 15:00:00,76.4,62.4,30.31,East,82,0.0,0.0,62,0.00,,,0.00,Wunderground v.1.15,2013-08-25 19:00:00,
2013-08-25 15:09:00,77.3,60.4,30.31,WSW,238,0.0,0.0,56,0.00,,,0.00,Wunderground v.1.15,2013-08-25 19:09:00,
2013-08-25 15:20:00,77.1,59.7,30.31,North,355,0.0,0.0,55,0.00,,,0.00,Wunderground v.1.15,2013-08-25 19:20:00,
2013-08-25 15:29:00,76.7,57.2,30.31,ENE,73,0.0,0.0,51,0.00,,,0.00,Wunderground v.1.15,2013-08-25 19:29:00,
2013-08-25 15:39:00,77.1,58.1,30.31,North,9,0.0,0.0,52,0.00,,,0.00,Wunderground v.1.15,2013-08-25 19:39:00,
2013-08-25 15:49:00,77.0,59.6,30.30,NNE,24,0.0,0.0,55,0.00,,,0.00,Wunderground v.1.15,2013-08-25 19:49:00,
2013-08-25 15:54:00,76.7,58.8,30.30,NE,38,0.0,0.0,54,0.00,,,0.00,Wunderground v.1.15,2013-08-25 19:54:00,
2013-08-25 16:00:00,77.3,58.8,30.30,NNW,345,0.0,0.0,53,0.00,,,0.00,Wunderground v.1.15,2013-08-25 20:00:00,
2013-08-25 16:09:00,77.7,58.7,30.30,NNW,344,0.0,0.0,52,0.00,,,0.00,Wunderground v.1.15,2013-08-25 20:09:00,
2013-08-25 16:15:00,77.7,59.2,30.30,NNW,344,0.0,0.0,53,0.00,,,0.00,Wunderground v.1.15,2013-08-25 20:15:00,
2013-08-25 16:24:00,78.1,59.0,30.29,NNW,344,0.0,0.0,52,0.00,,,0.00,Wunderground v.1.15,2013-08-25 20:24:00,
2013-08-25 16:34:00,77.8,59.8,30.29,NNW,344,0.0,0.0,54,0.00,,,0.00,Wunderground v.1.15,2013-08-25 20:34:00,
2013-08-25 16:44:00,77.5,58.5,30.28,WNW,294,0.0,0.0,52,0.00,,,0.00,Wunderground v.1.15,2013-08-25 20:44:00,
2013-08-25 16:55:00,77.2,58.2,30.28,WNW,294,0.0,0.0,52,0.00,,,0.00,Wunderground v.1.15,2013-08-25 20:55:00,
2013-08-25 17:00:00,77.1,58.6,30.28,WNW,294,0.0,0.0,53,0.00,,,0.00,Wunderground v.1.15,2013-08-25 21:00:00,
2013-08-25 17:10:00,77.1,57.6,30.28,West,271,0.0,0.0,51,0.00,,,0.00,Wunderground v.1.15,2013-08-25 21:10:00,
2013-08-25 17:15:00,77.0,57.5,30.28,West,271,0.0,0.0,51,0.00,,,0.00,Wunderground v.1.15,2013-08-25 21:15:00,
2013-08-25 17:24:00,77.0,58.0,30.27,WSW,245,0.0,0.0,52,0.00,,,0.00,Wunderground v.1.15,2013-08-25 21:24:00,
2013-08-25 17:34:00,76.6,57.7,30.26,WSW,252,0.0,0.0,52,0.00,,,0.00,Wunderground v.1.15,2013-08-25 21:34:00,
2013-08-25 17:39:00,76.6,58.2,30.26,WSW,252,0.0,0.0,53,0.00,,,0.00,Wunderground v.1.15,2013-08-25 21:39:00,
2013-08-25 17:44:00,76.6,58.7,30.26,WSW,252,0.0,0.0,54,0.00,,,0.00,Wunderground v.1.15,2013-08-25 21:44:00,
2013-08-25 17:49:00,76.6,57.1,30.26,WSW,252,0.0,0.0,51,0.00,,,0.00,Wunderground v.1.15,2013-08-25 21:49:00,
2013-08-25 18:00:00,76.0,58.2,30.25,WSW,252,0.0,0.0,54,0.00,,,0.00,Wunderground v.1.15,2013-08-25 22:00:00,
2013-08-25 18:09:00,75.2,58.4,30.25,WSW,252,0.0,0.0,56,0.00,,,0.00,Wunderground v.1.15,2013-08-25 22:09:00,
2013-08-25 18:15:00,74.6,58.4,30.25,WSW,252,0.0,0.0,57,0.00,,,0.00,Wunderground v.1.15,2013-08-25 22:15:00,
2013-08-25 18:24:00,73.5,58.3,30.25,WSW,252,0.0,0.0,59,0.00,,,0.00,Wunderground v.1.15,2013-08-25 22:24:00,
2013-08-25 18:34:00,72.7,58.5,30.24,WSW,252,0.0,0.0,61,0.00,,,0.00,Wunderground v.1.15,2013-08-25 22:34:00,
2013-08-25 18:39:00,72.4,58.6,30.24,WSW,252,0.0,0.0,62,0.00,,,0.00,Wunderground v.1.15,2013-08-25 22:39:00,
2013-08-25 18:49:00,71.9,59.1,30.24,WSW,252,0.0,0.0,64,0.00,,,0.00,Wunderground v.1.15,2013-08-25 22:49:00,
2013-08-25 18:55:00,71.6,58.8,30.24,WSW,252,0.0,0.0,64,0.00,,,0.00,Wunderground v.1.15,2013-08-25 22:55:00,
2013-08-25 19:00:00,71.3,58.5,30.24,WSW,252,0.0,0.0,64,0.00,,,0.00,Wunderground v.1.15,2013-08-25 23:00:00,
2013-08-25 19:10:00,70.8,58.4,30.24,WSW,252,0.0,0.0,65,0.00,,,0.00,Wunderground v.1.15,2013-08-25 23:10:00,
2013-08-25 19:15:00,70.5,58.2,30.24,North,32767,-999.0,0.0,65,0.00,,,0.00,Wunderground v.1.15,2013-08-25 23:15:00,
2013-08-25 19:24:00,70.1,58.2,30.23,North,32767,-999.0,0.0,66,0.00,,,0.00,Wunderground v.1.15,2013-08-25 23:24:00,
2013-08-25 19:30:00,69.9,58.0,30.23,North,32767,-999.0,0.0,66,0.00,,,0.00,Wunderground v.1.15,2013-08-25 23:30:00,
2013-08-25 19:39:00,69.6,57.7,30.24,North,32767,-999.0,0.0,66,0.00,,,0.00,Wunderground v.1.15,2013-08-25 23:39:00,
2013-08-25 19:45:00,69.4,57.5,30.23,North,32767,-999.0,0.0,66,0.00,,,0.00,Wunderground v.1.15,2013-08-25 23:45:00,
2013-08-25 19:50:00,69.3,57.5,30.23,North,32767,-999.0,0.0,66,0.00,,,0.00,Wunderground v.1.15,2013-08-25 23:50:00,
2013-08-25 20:00:00,69.0,57.6,30.24,North,32767,-999.0,0.0,67,0.00,,,0.00,Wunderground v.1.15,2013-08-26 00:00:00,
2013-08-25 20:09:00,68.7,57.3,30.24,North,32767,-999.0,0.0,67,0.00,,,0.00,Wunderground v.1.15,2013-08-26 00:09:00,
2013-08-25 20:19:00,68.5,57.5,30.24,North,32767,-999.0,0.0,68,0.00,,,0.00,Wunderground v.1.15,2013-08-26 00:19:00,
2013-08-25 20:24:00,68.4,57.8,30.24,North,32767,-999.0,0.0,69,0.00,,,0.00,Wunderground v.1.15,2013-08-26 00:24:00,
2013-08-25 20:30:00,68.2,57.6,30.24,North,32767,-999.0,0.0,69,0.00,,,0.00,Wunderground v.1.15,2013-08-26 00:30:00,
2013-08-25 20:40:00,68.1,57.5,30.24,North,32767,-999.0,0.0,69,0.00,,,0.00,Wunderground v.1.15,2013-08-26 00:40:00,
2013-08-25 20:49:00,67.9,57.4,30.23,North,32767,-999.0,0.0,69,0.00,,,0.00,Wunderground v.1.15,2013-08-26 00:49:00,
2013-08-25 20:54:00,67.9,57.4,30.23,North,32767,-999.0,0.0,69,0.00,,,0.00,Wunderground v.1.15,2013-08-26 00:54:00,
2013-08-25 21:00:00,67.8,57.3,30.24,North,32767,-999.0,0.0,69,0.00,,,0.00,Wunderground v.1.15,2013-08-26 01:00:00,
2013-08-25 21:09:00,67.8,57.3,30.24,North,32767,-999.0,0.0,69,0.00,,,0.00,Wunderground v.1.15,2013-08-26 01:09:00,
2013-08-25 21:19:00,67.7,57.2,30.23,North,32767,-999.0,0.0,69,0.00,,,0.00,Wunderground v.1.15,2013-08-26 01:19:00,
2013-08-25 21:25:00,67.6,57.1,30.24,North,32767,-999.0,0.0,69,0.00,,,0.00,Wunderground v.1.15,2013-08-26 01:25:00,
2013-08-25 21:34:00,67.5,57.0,30.24,North,32767,-999.0,0.0,69,0.00,,,0.00,Wunderground v.1.15,2013-08-26 01:34:00,
2013-08-25 21:44:00,67.5,57.4,30.24,North,32767,-999.0,0.0,70,0.00,,,0.00,Wunderground v.1.15,2013-08-26 01:44:00,
2013-08-25 21:54:00,67.4,57.3,30.24,North,32767,-999.0,0.0,70,0.00,,,0.00,Wunderground v.1.15,2013-08-26 01:54:00,
2013-08-25 22:00:00,67.4,57.3,30.24,North,32767,-999.0,0.0,70,0.00,,,0.00,Wunderground v.1.15,2013-08-26 02:00:00,
2013-08-25 22:09:00,67.3,57.2,30.23,North,32767,-999.0,0.0,70,0.00,,,0.00,Wunderground v.1.15,2013-08-26 02:09:00,
2013-08-25 22:19:00,67.3,57.6,30.23,North,32767,-999.0,0.0,71,0.00,,,0.00,Wunderground v.1.15,2013-08-26 02:19:00,
2013-08-25 22:24:00,67.3,57.6,30.24,North,32767,-999.0,0.0,71,0.00,,,0.00,Wunderground v.1.15,2013-08-26 02:24:00,
2013-08-25 22:29:00,67.3,57.2,30.24,North,32767,-999.0,0.0,70,0.00,,,0.00,Wunderground v.1.15,2013-08-26 02:29:00,
2013-08-25 22:34:00,67.3,57.6,30.24,North,32767,-999.0,0.0,71,0.00,,,0.00,Wunderground v.1.15,2013-08-26 02:34:00,
2013-08-25 22:40:00,67.1,57.4,30.24,North,32767,-999.0,0.0,71,0.00,,,0.00,Wunderground v.1.15,2013-08-26 02:40:00,
2013-08-25 22:45:00,67.0,57.3,30.23,North,32767,-999.0,0.0,71,0.00,,,0.00,Wunderground v.1.15,2013-08-26 02:45:00,
2013-08-25 22:55:00,66.6,57.7,30.23,North,32767,-999.0,0.0,73,0.00,,,0.00,Wunderground v.1.15,2013-08-26 02:55:00,
2013-08-25 23:00:00,66.4,57.5,30.23,North,32767,-999.0,0.0,73,0.00,,,0.00,Wunderground v.1.15,2013-08-26 03:00:00,
2013-08-25 23:09:00,65.9,57.4,30.23,North,32767,-999.0,0.0,74,0.00,,,0.00,Wunderground v.1.15,2013-08-26 03:09:00,
2013-08-25 23:15:00,65.4,57.3,30.23,North,32767,-999.0,0.0,75,0.00,,,0.00,Wunderground v.1.15,2013-08-26 03:15:00,
2013-08-25 23:20:00,65.1,57.3,30.23,North,32767,-999.0,0.0,76,0.00,,,0.00,Wunderground v.1.15,2013-08-26 03:20:00,
2013-08-25 23:25:00,64.9,57.5,30.23,North,32767,-999.0,0.0,77,0.00,,,0.00,Wunderground v.1.15,2013-08-26 03:25:00,
2013-08-25 23:34:00,64.7,57.7,30.23,North,32767,-999.0,0.0,78,0.00,,,0.00,Wunderground v.1.15,2013-08-26 03:34:00,
2013-08-25 23:45:00,64.5,57.5,30.23,North,32767,-999.0,0.0,78,0.00,,,0.00,Wunderground v.1.15,2013-08-26 03:45:00,
2013-08-25 23:54:00,64.4,57.7,30.23,North,32767,-999.0,0.0,79,0.00,,,0.00,Wunderground v.1.15,2013-08-26 03:54:00,